World > North America > United States > Iowa > Cedar Falls  

Cedar Falls, IA Hourly Weather Updates

Feedback E-mail the Weather

Quick Clicks

Cedar Falls, IA Weather Maps

°F °C°F °C
Cedar Falls Weather Map
UTC Time: 7/24/2024, 22:07
Your Time:

Cedar Falls, IA Regional Weather

Expires:202407242300;;236708
ASUS43 KDMX 242206
RWRIA 

WEATHER ROUNDUP FOR IOWA
NATIONAL WEATHER SERVICE DES MOINES IA
500 PM CDT WED JUL 24 2024

NOTE: "FAIR" INDICATES FEW OR NO CLOUDS BELOW 12,000 FEET WITH NO
SIGNIFICANT WEATHER AND/OR OBSTRUCTIONS TO VISIBILITY.

* - THESE STATIONS ARE NOT NWS STATIONS...THUS NOT UNDER NWS
QUALITY CONTROL.  THEY ALSO DO NOT REPORT WEATHER SUCH 
AS PRECIPITATION OR FOG.  


IAZ007>011-017>019-026>030-037>042-050>054-066-242300-
   NORTHEAST IOWA
  
CITY           SKY/WX    TMP DP  RH WIND       PRES   REMARKS
CEDAR RAPIDS   CLOUDY    77  69  76 E7        30.13S TC  25           
CHARLES CITY * SUNNY     77  66  69 NE7       30.15F TC  25           
CLINTON *      PTSUNNY   78  70  76 NE8       30.14S HX  80  TC  26   
DECORAH *      PTSUNNY   73  64  73 E8        30.15S TC  23           
DUBUQUE        PTSUNNY   77  66  68 N7        30.16S TC  25           
MONTICELLO *   PTSUNNY   77  70  78 N5        30.13S TC  25           
OELWEIN *      MOSUNNY   77  68  73 CALM      30.16S TC  25           
WATERLOO       PTSUNNY   78  68  71 E6        30.14S HX  80  TC  26   
$$
 

SKY/WX - Weather  TMP - Temperature  DP - Dew Point  RH - Humidity
WIND - Wind Direction/Speed PRES - Barometric Pressure VSB - Visibility
WCI - Wind Chill Index E13G22 Wind - East Wind 13 mph/Gusts of 22 mph

Trending Headlines

Trending Entertainment Headlines

Cedar Falls Radar Loop

Use the map search tool if you want to place a location marker on the radar map...

Cedar Falls Quick Facts

National Two Day Weather Forecast


E-mail the Cedar Falls Weather Forecast

Voice your opinion or tell us about page issues...